Jordan, MT

3:51 AM MDT on July 25, 2017 (GMT -0600)
Jordan

Weather History for KJDN - May, 2013

Change the Weather History Date:

Friday, May 17, 2013

  Actual Average Record
Temperature  
Mean Temperature 61 °F 53 °F  
Max Temperature 69 °F 67 °F 93 °F (1934)
Min Temperature 53 °F 39 °F 24 °F (2002)
Degree Days  
Heating Degree Days 4 12  
Month to date heating degree days 190 248  
Since 1 July heating degree days 7512 7982  
Cooling Degree Days 0 0  
Month to date cooling degree days 10 0  
Year to date cooling degree days 10 0  
Growing Degree Days 10 (Base 50)    
Moisture  
Dew Point 50 °F    
Average Humidity 69    
Maximum Humidity 93    
Minimum Humidity 45    
Precipitation  
Precipitation 0.05 in 0.06 in 0.98 in (1969)
Month to date precipitation 0.06 0.96  
Year to date precipitation 2.90 3.04  
Snow  
Snow 0.00 in - - ()
Month to date snowfall 0.0  
Since 1 July snowfall 0.0  
Snow Depth 0.00 in    
Sea Level Pressure  
Sea Level Pressure 29.83 in    
Wind  
Wind Speed 5 mph (NNE)    
Max Wind Speed 16 mph    
Max Gust Speed 21 mph    
T = Trace of Precipitation, MM = Missing Value Source: NWS Daily Summary

Daily Weather History Graph

Daily Weather History Graph

Search for Another Location

Airport or City:

Trip Planner

Search our weather history database for the weather conditions in past years. The results will help you decide how hot, cold, wet, or windy it might be!

Date:

Astronomy

May. 17, 2013 Rise Set
Actual Time 5:28 AM MDT 8:40 PM MDT
Civil Twilight 4:51 AM MDT 9:17 PM MDT
Nautical Twilight 4:04 AM MDT 10:05 PM MDT
Astronomical Twilight 3:04 AM MDT 11:05 PM MDT
Moon 12:16 PM MDT (5/17) 1:23 AM MDT (5/17)
Length of Visible Light 16h 25m
Length of Day
15h 12m
Waxing Crescent, 46% of the Moon is Illuminated
May 17
Waxing Crescent
May 17
First Quarter
May 24
Full
May 31
Last Quarter
Jun 8
New

Hourly Weather History & Observations

Time (MDT) Temp. Dew Point Humidity Pressure Visibility Wind Dir Wind Speed Gust Speed Precip Events Conditions
12:48 AM 55.0 °F 52.0 °F 89% 29.84 in - North 6.9 mph - N/A   Unknown
1:48 AM 54.0 °F 52.0 °F 93% 29.83 in - Calm Calm - N/A   Unknown
2:48 AM 54.0 °F 51.1 °F 90% 29.83 in - NNE 4.6 mph - N/A   Unknown
3:48 AM 53.1 °F 52.0 °F 96% 29.84 in - Calm Calm - N/A   Unknown
4:48 AM 54.0 °F 51.1 °F 90% 29.84 in - Calm Calm - N/A   Unknown
5:48 AM 53.1 °F 51.1 °F 93% 29.84 in - East 4.6 mph - N/A   Unknown
6:48 AM 54.0 °F 50.0 °F 86% 29.86 in - Calm Calm - N/A   Unknown
7:48 AM 55.0 °F 51.1 °F 86% 29.87 in - Calm Calm - N/A   Unknown
8:48 AM 57.0 °F 52.0 °F 83% 29.87 in - Calm Calm - N/A   Unknown
9:48 AM 62.1 °F 51.1 °F 67% 29.85 in - NE 5.8 mph - N/A   Unknown
10:48 AM 64.0 °F 48.9 °F 58% 29.85 in - Variable 3.5 mph - N/A   Unknown
11:48 AM 64.9 °F 48.0 °F 54% 29.84 in - NE 3.5 mph - N/A   Unknown
12:48 PM 66.0 °F 46.9 °F 50% 29.84 in - Variable 3.5 mph - N/A   Unknown
1:48 PM 66.9 °F 46.9 °F 49% 29.83 in - NE 4.6 mph - N/A   Unknown
2:48 PM 66.9 °F 45.0 °F 45% 29.83 in - East 5.8 mph - N/A   Unknown
3:48 PM 66.9 °F 46.0 °F 47% 29.82 in - ESE 9.2 mph - N/A   Unknown
4:48 PM 66.0 °F 46.0 °F 48% 29.81 in - ESE 4.6 mph - N/A   Unknown
5:48 PM 68.0 °F 48.9 °F 50% 29.79 in - NNW 4.6 mph - N/A   Unknown
6:48 PM 66.0 °F 48.9 °F 54% 29.81 in - NNE 8.1 mph - N/A   Unknown
7:48 PM 64.9 °F 48.9 °F 56% 29.81 in - North 6.9 mph - N/A   Unknown
8:48 PM 59.0 °F 53.1 °F 81% 29.82 in - NNW 9.2 mph - 0.01 in   Unknown
9:48 PM 59.0 °F 53.1 °F 81% 29.82 in - North 8.1 mph - N/A   Unknown
10:48 PM 57.0 °F 53.1 °F 87% 29.82 in - NNW 15.0 mph - 0.01 in   Unknown
11:48 PM 57.0 °F 53.1 °F 87% 29.83 in - NNW 9.2 mph - N/A   Unknown